Location: Bayshore Village Mobile Home Park
(26.6945°N, 81.8642°W)
Time: 22:06:52
(UTC+00:00)

In-Cosmos 22 - Pass Details

Date: 17 June 2021
Orbit: 786 x 876 km, 81.2° (Epoch: 31 July)

Event Time Altitude Azimuth Distance (km) Brightness Sun altitude
Exits shadow 02:04:35 36° 153° (SSE) 1,227 4.6 -19.8°
Maximum altitude 02:06:30 57° 94° (E) 926 4.1 -20.1°
Drops below altitude 10° 02:11:39 10° 17° (NNE) 2,345 6.8 -21.0°
Sets 02:14:03 0° 13° (NNE) 3,277 7.7 -21.4°
